Weather History for KBLF - January, 2012

Change the Weather History Date:

Wednesday, January 11, 2012

  Actual Average Record
Temperature  
Mean Temperature 42 °F 34 °F  
Max Temperature 46 °F 42 °F 60 °F (2005)
Min Temperature 38 °F 26 °F -11 °F (1982)
Degree Days  
Heating Degree Days 23 31  
Month to date heating degree days 302 341  
Since 1 July heating degree days 1794 2106  
Cooling Degree Days 0 0  
Month to date cooling degree days 0 0  
Year to date cooling degree days 0 0  
Moisture  
Dew Point 38 °F    
Average Humidity 65    
Maximum Humidity 89    
Minimum Humidity 41    
Precipitation  
Precipitation 0.80 in 0.10 in 0.80 in (1991)
Month to date precipitation 1.20 1.04  
Year to date precipitation 1.20 1.04  
Snow  
Snow 0.00 in - - ()
Month to date snowfall 2.3  
Since 1 July snowfall 5.5  
Snow Depth 0.00 in    
Sea Level Pressure  
Sea Level Pressure 29.68 in    
Wind  
Wind Speed 7 mph (ESE)    
Max Wind Speed 23 mph    
Max Gust Speed 36 mph    
Visibility 8 miles    
Events Rain    
T = Trace of Precipitation, MM = Missing Value Source: NWS Daily Summary

Daily Weather History Graph

Daily Weather History Graph

Search for Another Location

Airport or City:

Trip Planner

Search our weather history database for the weather conditions in past years. The results will help you decide how hot, cold, wet, or windy it might be!

Date:

Astronomy

Jan. 11, 2012 Rise Set
Actual Time 7:38 AM EST 5:26 PM EST
Civil Twilight 7:10 AM EST 5:55 PM EST
Nautical Twilight 6:38 AM EST 6:27 PM EST
Astronomical Twilight 6:06 AM EST 6:58 PM EST
Moon 8:18 PM EST (1/11) 8:54 AM EST (1/11)
Length of Visible Light 10h 44m
Length of Day
9h 47m
Waning Gibbous, 93% of the Moon is Illuminated
Jan 11
Waning Gibbous
Jan 16
Last Quarter
Jan 23
New
Jan 30
First Quarter
Feb 7
Full

Hourly Weather History & Observations

Time (EST) Temp. Windchill Dew Point Humidity Pressure Visibility Wind Dir Wind Speed Gust Speed Precip Events Conditions
12:52 AM 41.0 °F 37.1 °F 25.0 °F 53% 29.93 in 10.0 mi East 5.8 mph - N/A   Partly Cloudy
1:52 AM 41.0 °F 37.1 °F 27.0 °F 57% 29.91 in 10.0 mi East 5.8 mph - N/A   Overcast
2:52 AM 37.9 °F 33.5 °F 28.0 °F 68% 29.89 in 10.0 mi ESE 5.8 mph - N/A   Overcast
3:52 AM 45.0 °F 41.8 °F 32.0 °F 60% 29.86 in 10.0 mi ESE 5.8 mph - N/A   Overcast
4:05 AM 44.6 °F 42.2 °F 33.8 °F 66% 29.86 in 10.0 mi ENE 4.6 mph - N/A   Overcast
4:52 AM 45.0 °F 41.8 °F 34.0 °F 65% 29.84 in 10.0 mi Variable 5.8 mph - 0.00 in   Overcast
5:36 AM 42.8 °F 41.1 °F 37.4 °F 81% 29.84 in 8.0 mi Variable 3.5 mph - 0.04 in Rain Light Rain
5:52 AM 42.1 °F 38.4 °F 37.0 °F 82% 29.83 in 9.0 mi Variable 5.8 mph - 0.06 in Rain Light Rain
6:52 AM 43.0 °F 36.4 °F 39.0 °F 86% 29.83 in 7.0 mi SE 12.7 mph 21.9 mph 0.10 in Rain Light Rain
7:28 AM 42.8 °F 36.6 °F 39.2 °F 87% 29.83 in 8.0 mi SE 11.5 mph - 0.03 in Rain Light Rain
7:36 AM 42.8 °F 37.0 °F 39.2 °F 87% 29.83 in 9.0 mi SE 10.4 mph - 0.04 in Rain Light Rain
7:52 AM 43.0 °F 39.5 °F 39.0 °F 86% 29.82 in 10.0 mi Variable 5.8 mph - 0.04 in   Overcast
8:52 AM 43.0 °F 37.2 °F 39.0 °F 86% 29.80 in 10.0 mi SE 10.4 mph 20.7 mph N/A   Overcast
9:11 AM 42.8 °F 36.6 °F 39.2 °F 87% 29.80 in 10.0 mi ESE 11.5 mph 26.5 mph N/A   Overcast
9:52 AM 44.1 °F 40.1 °F 39.0 °F 82% 29.77 in 10.0 mi Variable 6.9 mph 24.2 mph 0.00 in   Overcast
10:52 AM 44.1 °F 38.6 °F 39.9 °F 85% 29.76 in 10.0 mi SE 10.4 mph 27.6 mph 0.00 in   Overcast
11:15 AM 44.6 °F 38.1 °F 39.2 °F 81% 29.75 in 10.0 mi SE 13.8 mph 33.4 mph N/A   Overcast
11:52 AM 45.0 °F 37.6 °F 39.9 °F 82% 29.71 in 6.0 mi SE 17.3 mph 31.1 mph N/A   Haze
12:52 PM 45.0 °F 39.7 °F 39.9 °F 82% 29.68 in 10.0 mi ESE 10.4 mph 20.7 mph 0.03 in   Overcast
1:29 PM 44.6 °F 39.7 °F 39.2 °F 81% 29.65 in 10.0 mi ESE 9.2 mph 24.2 mph 0.00 in   Overcast
1:52 PM 44.1 °F 42.5 °F 39.9 °F 85% 29.63 in 8.0 mi Variable 3.5 mph 16.1 mph 0.00 in   Overcast
2:38 PM 44.6 °F 39.2 °F 39.2 °F 81% 29.62 in 7.0 mi ESE 10.4 mph 16.1 mph 0.01 in Rain Light Rain
2:52 PM 44.1 °F 40.8 °F 39.9 °F 85% 29.61 in 4.0 mi East 5.8 mph - 0.03 in Rain Rain
3:21 PM 42.8 °F 38.0 °F 39.2 °F 87% 29.60 in 4.0 mi ESE 8.1 mph 19.6 mph 0.07 in Rain Light Rain
3:34 PM 44.6 °F 42.2 °F 39.2 °F 81% 29.60 in 7.0 mi Variable 4.6 mph - 0.10 in Rain Light Rain
3:39 PM 44.6 °F 41.4 °F 39.2 °F 81% 29.60 in 10.0 mi Variable 5.8 mph - 0.10 in Rain Light Rain
3:52 PM 44.1 °F 40.8 °F 39.0 °F 82% 29.57 in 8.0 mi East 5.8 mph - 0.12 in Rain Light Rain
4:04 PM 44.6 °F 40.7 °F 39.2 °F 81% 29.58 in 10.0 mi Variable 6.9 mph - 0.00 in   Overcast
4:52 PM 43.0 °F - 39.0 °F 86% 29.58 in 4.0 mi Calm Calm - 0.03 in Rain Light Rain
5:19 PM 42.8 °F 39.3 °F 39.2 °F 87% 29.57 in 8.0 mi East 5.8 mph - 0.05 in Rain Light Rain
5:37 PM 42.8 °F 38.0 °F 39.2 °F 87% 29.56 in 10.0 mi East 8.1 mph - 0.05 in   Overcast
5:52 PM 43.0 °F 37.7 °F 39.0 °F 86% 29.55 in 10.0 mi East 9.2 mph 18.4 mph 0.05 in   Overcast
6:12 PM 42.8 °F 38.6 °F 39.2 °F 87% 29.54 in 10.0 mi Variable 6.9 mph - N/A   Overcast
6:52 PM 43.0 °F 39.5 °F 39.0 °F 86% 29.52 in 10.0 mi East 5.8 mph - N/A   Overcast
7:52 PM 43.0 °F 36.8 °F 39.0 °F 86% 29.56 in 6.0 mi SSE 11.5 mph 16.1 mph 0.11 in Rain Rain
8:00 PM 42.8 °F 37.5 °F 37.4 °F 81% 29.57 in 5.0 mi SSE 9.2 mph - 0.03 in Rain Rain
8:09 PM 42.8 °F 38.6 °F 37.4 °F 81% 29.56 in 7.0 mi SE 6.9 mph - 0.07 in Rain Rain
8:52 PM 42.1 °F 40.2 °F 37.9 °F 85% 29.51 in 10.0 mi ESE 3.5 mph - 0.18 in Rain Light Rain
9:52 PM 42.1 °F 40.2 °F 37.0 °F 82% 29.50 in 10.0 mi SE 3.5 mph - 0.02 in   Overcast
10:03 PM 42.8 °F - 37.4 °F 81% 29.50 in 10.0 mi Calm Calm - N/A   Overcast
10:52 PM 42.1 °F - 37.9 °F 85% 29.49 in 10.0 mi Calm Calm - N/A   Overcast
11:52 PM 42.1 °F 40.2 °F 39.0 °F 89% 29.49 in 4.0 mi WNW 3.5 mph - 0.02 in Rain Light Rain